Flag for West Bank Weather past 2 weeks in Nablus, West Bank

Now
82 °F

Passing clouds.


Feels Like: 85 °F
Forecast: 69 / 84 °F
Wind: 12 mph from Northwest

Location: Ben Gurion International Airport

Current Time: Sep 4, 2015 at 7:34:58 PM

Latest Report: Sep 4, 2015 at 7:20 PM


Visibility: N/A

Pressure: 29.83 "Hg (28.08 "Hg at 534m altitude)

Humidity: 62%

Dew point: 68 °F

Location of NablusLocation

Historic Weather in Nablus — Graph

°F

Nablus temperature yesterday

Maximum temperature yesterday: 91 °F (at 1:20 PM)
Minimum temperature yesterday: 77 °F (at 6:20 AM)
Average temperature yesterday: 84 °F

Past Weeks' High & Low Weather Summary

 TemperatureHumidityPressure
High91 °F (Sep 2, 11:50 AM)83% (Aug 28, 4:20 AM)29.89 "Hg (Aug 28, 4:20 AM)
Low75 °F (Aug 26, 4:20 AM)46% (Aug 25, 12:20 PM)29.71 "Hg (Aug 23, 3:20 PM)
Average83 °F65%29.82 "Hg
* Reported Aug 20 6:20 PM — Sep 4 6:20 PM, Nablus, Weather by CustomWeather, © 2015

Note: Actual official high and low records may vary slightly from our data, if they occured in-between our weather recording intervals... More about our weather records

Advertising

Nablus weather history for previous 24 hours

 ConditionsComfort  
Time TempWeatherWind HumidityBarometerVisibility
6:20 PM
Fri, Sep 4
84 °FPassing clouds.13 mph58%29.83 "HgN/A
5:50 PM84 °FPassing clouds.12 mph58%29.83 "HgN/A
5:20 PM86 °FPassing clouds.12 mph55%29.83 "HgN/A
4:50 PM86 °FPassing clouds.14 mph55%29.83 "HgN/A
4:20 PM86 °FPassing clouds.13 mph59%29.83 "HgN/A
3:50 PM86 °FPassing clouds.14 mph59%29.83 "HgN/A
3:20 PM86 °FPassing clouds.14 mph59%29.83 "HgN/A
2:50 PM88 °FPassing clouds.14 mph55%29.83 "HgN/A
2:20 PM88 °FPassing clouds.15 mph55%29.83 "HgN/A
1:50 PM88 °FPassing clouds.15 mph55%29.83 "HgN/A
1:20 PM88 °FPassing clouds.12 mph55%29.86 "HgN/A
12:50 PM90 °FPassing clouds.13 mph55%29.86 "HgN/A
12:20 PM88 °FPassing clouds.13 mph55%29.86 "HgN/A
11:50 AM88 °FScattered clouds.10 mph55%29.86 "HgN/A
11:20 AM88 °FScattered clouds.10 mph59%29.86 "HgN/A
10:50 AM86 °FScattered clouds.12 mph59%29.86 "HgN/A
10:20 AM86 °FScattered clouds.10 mph59%29.86 "HgN/A
9:50 AM86 °FScattered clouds.5 mph59%29.86 "HgN/A
9:20 AM86 °FScattered clouds.2 mph59%29.86 "HgN/A
8:50 AM84 °FScattered clouds.3 mph62%29.86 "HgN/A
8:20 AM82 °FPassing clouds.2 mph70%29.86 "HgN/A
7:50 AM81 °FScattered clouds.6 mph74%29.86 "HgN/A
7:20 AM81 °FScattered clouds.5 mph74%29.86 "HgN/A
6:50 AM79 °FPassing clouds.1 mph74%29.86 "HgN/A
6:20 AM77 °FPassing clouds.1 mph79%29.83 "HgN/A
5:50 AM79 °FPassing clouds.1 mph74%29.83 "HgN/A
5:20 AM79 °FPassing clouds.1 mph74%29.83 "HgN/A
4:50 AM79 °FPassing clouds.3 mph74%29.83 "HgN/A
4:20 AM79 °FPassing clouds.2 mph74%29.83 "HgN/A
3:50 AM79 °FPassing clouds.2 mph74%29.83 "HgN/A
3:20 AM81 °FPassing clouds.2 mph74%29.83 "HgN/A
2:50 AM81 °FPassing clouds.5 mph74%29.83 "HgN/A
2:20 AM81 °FPassing clouds.5 mph74%29.83 "HgN/A
1:50 AM81 °FPassing clouds.5 mph74%29.83 "HgN/A
1:20 AM81 °FPassing clouds.6 mph74%29.83 "HgN/A
12:20 AM82 °FPassing clouds.5 mph74%29.83 "HgN/A
11:50 PM
Thu, Sep 3
82 °FPassing clouds.6 mph74%29.83 "HgN/A
11:20 PM82 °FPassing clouds.6 mph74%29.83 "HgN/A
10:50 PM82 °FPassing clouds.5 mph74%29.83 "HgN/A
10:20 PM82 °FPassing clouds.6 mph74%29.83 "HgN/A
9:50 PM82 °FPassing clouds.7 mph74%29.83 "HgN/A
9:20 PM82 °FPassing clouds.7 mph74%29.83 "HgN/A
8:50 PM84 °FPassing clouds.8 mph70%29.83 "HgN/A
8:20 PM84 °FPassing clouds.9 mph70%29.83 "HgN/A
7:50 PM84 °FScattered clouds.8 mph70%29.83 "HgN/A
7:20 PM84 °FScattered clouds.10 mph70%29.80 "HgN/A
Weather by CustomWeather, © 2015

See weather overviewHow to use our weather pages